Regional Weather Roundup
Issued by NWS

Home | Current Version | Previous Version | Graphics & Text | Print | Product List | Glossary On
Versions: 1 2 3 4 5 6 7 8 9 10 11 12 13 14 15 16 17 18 19 20 21 22 23 24 25 26 27 28 29 30 31 32 33 34 35 36 37 38 39 40 41 42 43 44 45 46 47 48 49 50
000
ASUS43 KIND 250309
RWRIN

WEATHER ROUNDUP FOR INDIANA
NATIONAL WEATHER SERVICE INDIANAPOLIS IN
1100 PM EDT FRI OCT 24 2014

NOTE: "FAIR" INDICATES FEW OR NO CLOUDS BELOW 12,000 FEET WITH NO
SIGNIFICANT WEATHER AND/OR OBSTRUCTIONS TO VISIBILITY.

* - STATION DOES NOT REPORT WEATHER SUCH AS PRECIPITATION OR FOG.

+ - STATION NOT QUALITY CONTROLLED BY THE NATIONAL WEATHER SERVICE.
    USE DATA WITH CAUTION...ESPECIALLY DEWPOINT AND RELATIVE
    HUMIDITY OBSERVATIONS.

INZ001>003-010>013-019-020-250400-
NORTHWEST INDIANA

CITY           SKY/WX    TMP DP  RH WIND       PRES   REMARKS
GARY /AIRPORT/ MOCLDY    59  46  61 S3        29.95F
KNOX *+        MOCLDY    49  45  86 S3        29.97F
LA PORTE +     PTCLDY    49  47  94 CALM      29.97F FOG
MICHIGAN CITY+ PTCLDY    46  46 100 CALM      29.97S FOG
MONTICELLO +   MOCLDY    53  50  90 S5        30.00R
RENSSELAER +   MOCLDY    54  52  94 SW6       29.99S
VALPARAISO     PTCLDY    54  45  71 S6        29.97F

$$

LMZ046-743>745-250400-
SOUTHERN LAKE MICHIGAN

STATION/POSITION TIME  TEMP WIND        PRES
                       AIR  DIR/SP/G
                 (UTC) (F)  (DEG/KT/KT) (MB)
MICHIGAN CITY    0300   58  130/ 12/ 13   N/A

$$

INZ004-005-014>016-021>024-250400-
NORTH CENTRAL INDIANA

CITY           SKY/WX    TMP DP  RH WIND       PRES   REMARKS
GOSHEN         PTCLDY    48  45  89 CALM      29.98F FOG
LOGANSPORT +   CLEAR     50  46  87 SW6       30.01R
PERU/GRISSOM   CLEAR     51  51 100 SW6       30.00R
ROCHESTER +    PTCLDY    57  52  82 SW5       30.00S
SOUTH BEND     PTCLDY    50  46  86 CALM      29.98F
WARSAW +       MOCLDY    46  45  93 CALM      29.99S

$$

INZ006>009-017-018-025>027-250400-
NORTHEAST INDIANA

CITY           SKY/WX    TMP DP  RH WIND       PRES   REMARKS
ANGOLA *+      CLOUDY    45  45 100 CALM      29.98F VSB 1/4
AUBURN +       CLEAR     50  46  87 S3        30.00S
FORT WAYNE     PTCLDY    49  46  90 SW8       30.00F
HUNTINGTON +   CLEAR    N/A N/A N/A SW3       30.00S

$$

INZ028-029-035-036-043>045-051>053-250400-
WEST CENTRAL INDIANA

CITY           SKY/WX    TMP DP  RH WIND       PRES   REMARKS
GREENCASTLE +  PTCLDY    52  50  93 CALM      30.03S
LAFAYETTE      MOCLDY    53  50  89 SW3       30.01R
TERRE HAUTE    CLEAR     50  48  93 CALM      30.03R

$$

INZ030>032-037>040-046>048-054>057-064-065-250400-
CENTRAL INDIANA

CITY           SKY/WX    TMP DP  RH WIND       PRES   REMARKS
CP ATTERBURY + CLEAR     45  43  93 CALM      30.04F
FRANKFORT +    PTCLDY    52  52 100 S5        30.03S
INDIANAPOLIS   PTCLDY    53  48  83 SW5       30.02S
-EAGLE CREEK   PTCLDY    52  49  89 CALM      30.02R
KOKOMO *+      PTCLDY    52  46  82 SW6       30.01S
MARION +       PTCLDY    49  46  88 S6        30.01S
MT COMFORT *+  CLEAR     50  48  93 S5        30.03S
SHELBYVILLE    CLEAR     52  47  83 S5        30.03S
ZIONSVILLE +   PTCLDY    50  47  88 CALM      30.03R

$$

INZ033-034-041-042-049-050-058-059-250400-
EAST CENTRAL INDIANA

CITY           SKY/WX    TMP DP  RH WIND       PRES   REMARKS
MUNCIE         PTCLDY    54  48  80 SW5       30.02S

$$

INZ060-061-067>069-081>083-085>088-250400-
SOUTHWEST INDIANA

CITY           SKY/WX    TMP DP  RH WIND       PRES   REMARKS
EVANSVILLE     CLEAR     54  51  90 CALM      30.07R
HUNTINGBURG *+ CLEAR     52  46  82 S3        30.06F
WASHINGTON +   CLEAR     57  53  85 SW8       30.04S

$$

INZ062-063-066-070>080-084-089>092-250400-
SOUTH CENTRAL AND SOUTHEAST INDIANA

CITY           SKY/WX    TMP DP  RH WIND       PRES   REMARKS
BLOOMINGTON    CLEAR     48  46  93 CALM      30.04S

$$




USA.gov is the U.S. government's official web portal to all federal, state and local government web resources and services.